Zurück zum Katalog

STARLINK-36984

AktivKommunikationVLEO
NORAD 68168·PAYLOAD·🇺🇸 United States

Gestartet Mar 14, 2026 von Vandenberg Space Force Base

Loading…

Nächste Überflüge (nächste 24 Stunden)

TLE

AktuellSource: CelesTrak SupGP

Epoche: Sep 14, 2026, 21:25 UTC

1 68168C 26050B   26257.89284722 -.00162410  00000+0 -47995-2 0  2574
2 68168  53.1576 103.7928 0001280  84.6945 124.0670 15.34465007    11

Verfolge STARLINK-36984 in Echtzeit mit AllMySat

Download on the App Store